[[{"header":{"parameterUnit":"m.s-1","parameterCategory":1,"la1":30.2991,"la2":30.254,"lo1":-89.0895,"lo2":-89.0444,"dy":0.0017,"dx":0.0017,"nx":28,"ny":28,"refTime":"2023-06-19T21:00:00:Z","depth":0,"parameterNumber":2,"parameterNumberName":"U-component_of_WINDS"},"data":[0,0,0,0,0,0,0,0,0,0,0,0,0,0,0,0,0,0,0,0,0,0,0,0,0,0,0,0,0,0,0,0,0,0,0,0,0,0,0,0,0,0,0,0,0,0,0,0,0,0,0,0,0,0,0,0,0,0,3.3839,3.3839,0,3.3904,3.3904,3.3905,3.3898,3.3897,3.3896,3.3896,3.3962,3.3964,3.3967,0,0,0,0,0,0,0,0,0,0,0,0,0,3.3709,3.3712,3.3839,3.3839,3.384,3.3904,3.3904,3.3905,3.3899,3.3897,3.3896,3.3895,3.3961,3.3964,3.3967,0,0,0,0,0,0,0,0,0,0,0,0,0,3.3769,3.3713,3.3838,3.3845,3.3846,3.3903,3.3904,3.3906,3.3899,3.3897,3.3896,3.3894,3.396,3.3964,3.3968,3.4023,0,0,3.398,3.3982,0,0,0,0,0,0,0,0,3.3766,3.3774,3.3843,3.3844,3.3846,3.3891,3.3883,3.3945,3.3899,3.3879,3.3895,3.3894,3.394,3.3945,3.3961,3.4026,3.4029,3.398,3.3983,3.3985,3.3986,0,0,0,0,0,0,0,3.3762,3.3771,3.3864,3.3844,3.3846,3.3844,3.3851,3.3895,3.3917,3.388,3.388,3.3888,3.394,3.3957,3.3962,3.403,3.398,3.3984,3.3986,3.3988,3.4146,3.4148,0,0,0,0,0,0,3.3756,3.3768,3.3862,3.3866,3.3801,3.3848,3.3855,3.3878,3.3916,3.3921,3.3889,3.3887,3.3951,3.3957,3.3964,3.4033,3.3985,3.3988,3.3991,3.4145,3.4147,3.4149,0,0,0,0,0,0,3.3753,3.3764,3.386,3.3817,3.3829,3.3852,3.3877,3.388,3.3897,3.3923,3.3927,3.3902,3.395,3.3959,3.4009,3.4035,3.399,3.3994,3.4143,3.4145,3.4148,3.4169,0,0,0,0,0,0,3.375,3.3763,3.3784,3.3817,3.3831,3.3903,3.3879,3.3883,3.3904,3.3902,3.3936,3.394,3.3949,3.4003,3.4013,3.404,3.3997,3.414,3.4144,3.4147,3.4166,3.4172,3.4177,0,0,0,0,0,3.3745,3.3787,3.3785,3.3797,3.3858,3.3904,3.3912,3.3921,3.3906,3.3928,3.3945,3.3939,3.4031,3.4008,3.402,3.4048,3.4139,3.4143,3.4147,3.4164,3.4171,3.4177,0,0,0,0,0,0,3.3756,3.3792,3.379,3.3844,3.3872,3.3903,3.393,3.3929,3.396,3.3957,3.3968,3.3976,3.4026,3.4042,3.4017,3.4104,3.4083,3.4089,3.4092,3.4099,3.4105,3.4099,3.4,0,0,0,0,0,3.3765,3.38,3.3829,3.3874,3.3888,3.3907,3.3927,3.3933,3.3961,3.3972,3.3993,3.402,3.4056,3.4078,3.4112,3.4169,3.4177,3.4194,3.42,3.4204,3.4209,3.4242,3.425,3.4162,3.4162,3.4162,0,0,3.3783,3.3807,3.3828,3.3877,3.3899,3.3935,3.3916,3.3955,3.3982,3.3978,3.4027,3.4043,3.4075,3.4129,3.4154,3.4144,3.4236,3.4209,3.4213,3.4215,3.4247,3.4255,3.4263,3.4165,3.4164,3.4164,0,0,3.3835,3.3857,3.3897,3.392,3.3953,3.3966,3.3975,3.4008,3.4019,3.4068,3.4067,3.4099,3.4159,3.4182,3.4202,3.4265,3.4262,3.4276,3.4305,3.4336,3.4343,3.4349,3.4372,3.438,3.4281,3.4281,3.4281,0,3.3853,3.3907,3.3918,3.3957,3.3979,3.3979,3.402,3.4041,3.4084,3.4099,3.4087,3.4164,3.4185,3.4245,3.4261,3.4277,3.4289,3.4271,3.4341,3.4348,3.4354,3.4376,3.4384,3.4283,3.4283,3.4283,3.4282,0,3.3929,3.3967,3.3996,3.4037,3.4063,3.4103,3.412,3.4144,3.4148,3.4162,3.4214,3.424,3.4279,3.4294,3.4298,3.4355,3.4348,3.4339,3.4317,3.4363,3.4384,3.4393,3.4285,3.4285,3.4284,3.4284,0,0,3.3987,3.4036,3.4047,3.4066,3.4104,3.4133,3.4174,3.4214,3.4235,3.4265,3.43,3.4352,3.4344,3.4366,3.4373,3.4401,3.445,3.4388,3.4389,3.4399,3.4516,3.4522,3.4532,3.4449,3.445,3.4452,3.4513,0,3.4043,3.4115,3.4127,3.419,3.4226,3.4227,3.4263,3.429,3.4305,3.4338,3.4355,3.4391,3.4378,3.4392,3.442,3.4438,3.4474,3.4434,3.4481,3.4483,3.4472,3.4543,3.4549,3.4606,3.4522,3.4523,3.4524,0,3.4117,3.415,3.4217,3.4251,3.4267,3.4299,3.4336,3.4368,3.4399,3.4408,3.4435,3.4438,3.4482,3.4459,3.4519,3.4492,3.4513,3.4525,3.4527,3.4531,3.4505,3.4548,3.4624,3.4633,3.4537,3.4536,3.4535,0,3.4153,3.4214,3.4262,3.4279,3.4321,3.4343,3.4362,3.4392,3.4415,3.4449,3.4464,3.4502,3.4522,3.4552,3.4566,3.4549,3.4626,3.4604,3.4635,3.4635,3.465,3.4649,3.473,3.4664,3.4664,3.4664,3.4664,0,3.4213,3.4254,3.4279,3.4309,3.4356,3.4369,3.4415,3.4433,3.446,3.4494,3.4498,3.4529,3.4547,3.4581,3.4593,3.4641,3.4651,3.4659,3.4662,3.4659,3.4658,3.4671,3.4668,3.4666,3.4666,3.4665,3.4665,0,3.426,3.4279,3.4332,3.4368,3.4378,3.441,3.4441,3.447,3.4486,3.4529,3.454,3.4565,3.4605,3.4623,3.4673,3.4681,3.4737,3.4737,3.4726,3.4727,3.4756,3.4753,3.4848,3.4862,3.4788,3.4789,3.4789,0,3.4297,3.4329,3.4369,3.4392,3.4411,3.4448,3.4472,3.4488,3.4513,3.4553,3.4577,3.4619,3.4652,3.4718,3.474,3.4779,3.478,3.4811,3.4786,3.4782,3.478,3.4778,3.4781,3.4815,3.4816,3.4816,3.4817,0,3.436,3.4369,3.4403,3.4442,3.4472,3.4503,3.4533,3.4552,3.4573,3.4601,3.4643,3.4669,3.4721,3.4762,3.4803,3.4823,3.4823,3.4825,3.4834,3.483,3.4823,3.4827,3.4738,3.4822,3.4822,3.4821,3.4821,3.4821,3.4403,3.4432,3.4465,3.4504,3.4529,3.4558,3.4588,3.4608,3.4644,3.4687,3.4695,3.474,3.4773,3.4828,3.4849,3.4885,3.4877,3.489,3.4894,3.4896,3.4898,3.4818,3.4892,3.4892,3.4892,3.4892,3.4892,0,3.4467,3.4489,3.4525,3.4568,3.4599,3.4598,3.4633,3.4659,3.4699,3.4729,3.4763,3.4812,3.4853,3.4879,3.492,3.4944,3.4946,3.4954,3.4952,3.4957,3.4903,3.4891,3.4953,3.4953,3.4953,3.4953,3.4953,3.4953,3.4504,3.4553,3.4565,3.4627,3.4649,3.4693,3.4713,3.474,3.4765,3.4819,3.4853,3.4871,3.49,3.4944,3.4981,3.4988,3.5003,3.5012,3.5019,3.4967,3.4961,3.4955,3.4943,3.5015,3.5016,3.507,3.5071,3.5071]},{"header":{"parameterUnit":"m.s-1","parameterCategory":1,"la1":30.2991,"la2":30.254,"lo1":-89.0895,"lo2":-89.0444,"dy":0.0017,"dx":0.0017,"nx":28,"ny":28,"refTime":"2023-06-19T21:00:00:Z","depth":0,"parameterNumber":3,"parameterNumberName":"V-component_of_WINDS"},"data":[0,0,0,0,0,0,0,0,0,0,0,0,0,0,0,0,0,0,0,0,0,0,0,0,0,0,0,0,0,0,0,0,0,0,0,0,0,0,0,0,0,0,0,0,0,0,0,0,0,0,0,0,0,0,0,0,0,0,0.4148,0.4148,0,0.4098,0.4097,0.4097,0.4064,0.4064,0.4064,0.4063,0.4011,0.401,0.4008,0,0,0,0,0,0,0,0,0,0,0,0,0,0.4213,0.4212,0.4148,0.4148,0.4147,0.4098,0.4097,0.4097,0.4064,0.4064,0.4064,0.4063,0.4011,0.401,0.4008,0,0,0,0,0,0,0,0,0,0,0,0,0,0.4176,0.4212,0.4149,0.4125,0.4122,0.4098,0.4097,0.4097,0.4064,0.4064,0.4063,0.4063,0.4012,0.401,0.4008,0.4003,0,0,0.4003,0.4002,0,0,0,0,0,0,0,0,0.4179,0.4174,0.4129,0.4127,0.4124,0.4087,0.4101,0.4065,0.4064,0.4086,0.4063,0.4063,0.4036,0.4032,0.4024,0.4001,0.3998,0.4002,0.4001,0.4,0.4,0,0,0,0,0,0,0,0.4181,0.4176,0.4128,0.4128,0.4125,0.4116,0.411,0.4094,0.4064,0.4084,0.4082,0.4076,0.4035,0.4025,0.4022,0.3998,0.4002,0.4001,0.4,0.3999,0.3965,0.3965,0,0,0,0,0,0,0.4188,0.4178,0.413,0.4127,0.4151,0.4115,0.4109,0.4099,0.4064,0.4058,0.4077,0.4075,0.4029,0.4024,0.402,0.401,0.4001,0.3999,0.3998,0.3965,0.3965,0.3965,0,0,0,0,0,0,0.4189,0.4184,0.4132,0.4152,0.4145,0.4114,0.4104,0.4098,0.4089,0.4058,0.4052,0.4073,0.4028,0.4023,0.4007,0.4008,0.3998,0.3996,0.3965,0.3965,0.3965,0.3992,0,0,0,0,0,0,0.4191,0.4185,0.4183,0.4152,0.4144,0.4121,0.4104,0.4097,0.4086,0.4083,0.4053,0.4048,0.4028,0.401,0.4005,0.4006,0.3995,0.3965,0.3965,0.3965,0.3991,0.3993,0.3995,0,0,0,0,0,0.4194,0.4193,0.4183,0.4178,0.4142,0.4121,0.4116,0.4094,0.4086,0.4084,0.4064,0.4049,0.4009,0.4009,0.4003,0.4003,0.3964,0.3965,0.3965,0.399,0.3993,0.3995,0,0,0,0,0,0,0.4225,0.4189,0.4177,0.4167,0.4147,0.4116,0.4112,0.4098,0.4079,0.4078,0.405,0.4043,0.403,0.4015,0.4015,0.3995,0.3985,0.3984,0.4005,0.4008,0.401,0.4014,0.3993,0,0,0,0,0,0.4231,0.4218,0.4186,0.418,0.4171,0.4143,0.4133,0.4117,0.4096,0.4087,0.4066,0.4045,0.4028,0.4017,0.3999,0.3988,0.398,0.3985,0.3987,0.3989,0.3989,0.398,0.3981,0.3967,0.3967,0.3967,0,0,0.4242,0.4221,0.4215,0.4186,0.4169,0.4155,0.4137,0.4123,0.4112,0.4085,0.4069,0.4052,0.4027,0.4013,0.4006,0.4,0.3991,0.399,0.3992,0.399,0.3981,0.3982,0.3983,0.3967,0.3967,0.3967,0,0,0.4256,0.4239,0.4231,0.4214,0.4189,0.417,0.4168,0.4138,0.4126,0.4109,0.4088,0.4074,0.4045,0.4027,0.4014,0.4019,0.4004,0.4014,0.4025,0.4017,0.4018,0.4019,0.4019,0.402,0.4014,0.4014,0.4014,0,0.4274,0.4253,0.4229,0.4216,0.4203,0.4178,0.4169,0.4153,0.4123,0.4114,0.4108,0.407,0.4051,0.4032,0.4033,0.4023,0.4019,0.4018,0.402,0.402,0.4021,0.4021,0.4021,0.4015,0.4015,0.4015,0.4015,0,0.4275,0.4261,0.4257,0.4228,0.4215,0.4204,0.4177,0.4166,0.4151,0.4133,0.4114,0.4091,0.4067,0.4061,0.4046,0.4039,0.4036,0.4025,0.4014,0.4024,0.4023,0.4023,0.4017,0.4017,0.4016,0.4016,0,0,0.4309,0.4265,0.4264,0.425,0.4219,0.4207,0.4194,0.417,0.4161,0.414,0.4128,0.4103,0.4092,0.4077,0.406,0.4053,0.4056,0.4042,0.4041,0.4045,0.4044,0.4052,0.4053,0.4045,0.4045,0.4045,0.4046,0,0.4317,0.4294,0.427,0.4255,0.424,0.4214,0.4203,0.4182,0.4164,0.4147,0.4127,0.4109,0.4097,0.4088,0.4079,0.4057,0.4055,0.4057,0.4032,0.4032,0.4039,0.4053,0.4062,0.4064,0.4046,0.4046,0.4046,0,0.4325,0.4305,0.4287,0.4256,0.4249,0.4239,0.4214,0.42,0.4175,0.4162,0.4144,0.4126,0.4109,0.41,0.4075,0.4077,0.4065,0.4053,0.4052,0.4049,0.4039,0.4049,0.4064,0.4064,0.4045,0.4045,0.4045,0,0.4349,0.4318,0.4303,0.4292,0.4255,0.4248,0.4232,0.4207,0.4194,0.4172,0.4163,0.4139,0.4127,0.4108,0.4083,0.4079,0.4061,0.405,0.4048,0.4049,0.4046,0.4047,0.4059,0.4039,0.4039,0.4039,0.4039,0,0.4361,0.4351,0.4314,0.4305,0.4292,0.4265,0.4252,0.4234,0.4211,0.4197,0.4173,0.416,0.4128,0.411,0.409,0.4072,0.4067,0.4055,0.405,0.4057,0.4058,0.4049,0.4048,0.4039,0.4039,0.4039,0.4039,0,0.4387,0.4361,0.4343,0.4309,0.43,0.4292,0.4263,0.4252,0.4232,0.4214,0.4208,0.4176,0.4154,0.4127,0.4097,0.4083,0.4066,0.4059,0.4075,0.4072,0.4072,0.4072,0.4078,0.4077,0.4059,0.406,0.406,0,0.4396,0.4387,0.4352,0.4341,0.4326,0.4308,0.4295,0.4267,0.4253,0.4222,0.4215,0.4191,0.417,0.4136,0.4109,0.4085,0.4076,0.408,0.4073,0.4079,0.4075,0.4076,0.4074,0.4082,0.4083,0.4083,0.4083,0,0.4414,0.4401,0.4383,0.4359,0.4343,0.4323,0.4302,0.4294,0.4261,0.4247,0.4224,0.4208,0.4176,0.4152,0.4124,0.4106,0.4089,0.4085,0.4084,0.4091,0.41,0.4094,0.408,0.4086,0.4085,0.4085,0.4085,0.4085,0.443,0.4421,0.4395,0.4374,0.4355,0.4336,0.4323,0.4301,0.4282,0.4254,0.4239,0.4216,0.4188,0.4149,0.4131,0.4112,0.4106,0.4104,0.4103,0.4103,0.4105,0.4104,0.4107,0.4107,0.4107,0.4107,0.4107,0,0.4446,0.4428,0.4409,0.438,0.4363,0.4349,0.4324,0.4311,0.4291,0.4267,0.4247,0.422,0.4196,0.4167,0.4141,0.4131,0.4122,0.4125,0.4125,0.4121,0.4112,0.4116,0.4132,0.4132,0.4132,0.4132,0.4132,0.4132,0.4453,0.4436,0.442,0.4393,0.4374,0.4352,0.4339,0.432,0.43,0.4271,0.4251,0.4233,0.4206,0.4177,0.4154,0.4146,0.4137,0.4142,0.4131,0.4124,0.4122,0.412,0.4123,0.4141,0.4141,0.4141,0.4141,0.4142]}]]